When you browse on this site, cookies collect data to enhance your experience and personalize the content and advertising you see.
Visit our Privacy Policy to learn more. By continuing to use the site, you agree to this use of cookies and data.
  • In Portugal
  • List of Countries
  • For 7 days
  • Water Temperature
  • Satellite Maps
  • Weather Map
  • Weather Widgets
  • user-avatar
    Login

    Hourly Weather Cork

    Today, 16 July, Tuesday

    Time Temperature Precipitation Wind Pressure Humidity
    00:00 +15°C° 0.2 mm 2 mps 762 mmHg 98%
    01:00 +15°C° 0.2 mm 2 mps 762 mmHg 97%
    02:00 +15°C° 0.2 mm 2 mps 762 mmHg 97%
    03:00 +16°C° 0.1 mm 1 mps 761 mmHg 97%
    04:00 +16°C° 0.1 mm 1 mps 761 mmHg 96%
    05:00 +16°C° 0.1 mm 1 mps 761 mmHg 96%
    06:00 +18°C° 0.1 mm 1 mps 761 mmHg 90%
    07:00 +19°C° 0.1 mm 1 mps 761 mmHg 85%
    08:00 +20°C° 0.1 mm 2 mps 762 mmHg 80%
    09:00 +20°C° 0.1 mm 2 mps 761 mmHg 76%
    10:00 +21°C° 0.1 mm 3 mps 761 mmHg 72%
    11:00 +22°C° 0.1 mm 3 mps 761 mmHg 68%
    12:00 +22°C° 0.1 mm 3 mps 761 mmHg 67%
    13:00 +22°C° 0.1 mm 4 mps 761 mmHg 66%
    14:00 +22°C° 0.1 mm 4 mps 761 mmHg 65%
    15:00 +21°C° 0 mm 4 mps 761 mmHg 67%
    16:00 +21°C° 0 mm 5 mps 760 mmHg 70%
    17:00 +20°C° 0 mm 5 mps 760 mmHg 73%
    18:00 +18°C° 0 mm 4 mps 760 mmHg 79%
    19:00 +17°C° 0 mm 3 mps 760 mmHg 85%
    20:00 +14°C° 0 mm 3 mps 760 mmHg 90%
    21:00 +14°C° 0 mm 3 mps 760 mmHg 92%
    22:00 +13°C° 0 mm 3 mps 760 mmHg 93%
    23:00 +14°C° 0 mm 2 mps 760 mmHg 94%

    Tomorrow, 17 July, Wednesday

    Time Temperature Precipitation Wind Pressure Humidity
    00:00 +14°C° 0 mm 2 mps 759 mmHg 94%
    01:00 +13°C° 0 mm 3 mps 759 mmHg 95%
    02:00 +13°C° 0 mm 3 mps 758 mmHg 95%
    03:00 +13°C° 0 mm 3 mps 758 mmHg 93%
    04:00 +14°C° 0 mm 4 mps 757 mmHg 92%
    05:00 +14°C° 0 mm 4 mps 757 mmHg 90%
    06:00 +15°C° 0.2 mm 4 mps 757 mmHg 90%
    07:00 +15°C° 0.2 mm 5 mps 757 mmHg 90%
    08:00 +15°C° 0.2 mm 5 mps 756 mmHg 90%
    09:00 +16°C° 0.3 mm 6 mps 756 mmHg 90%
    10:00 +16°C° 0.3 mm 6 mps 756 mmHg 90%
    11:00 +17°C° 0.3 mm 7 mps 755 mmHg 90%
    12:00 +17°C° 0.3 mm 6 mps 755 mmHg 92%
    13:00 +17°C° 0.3 mm 6 mps 755 mmHg 93%
    14:00 +17°C° 0.3 mm 6 mps 755 mmHg 94%
    15:00 +19°C° 0.3 mm 5 mps 755 mmHg 92%
    16:00 +19°C° 0.3 mm 5 mps 754 mmHg 90%
    17:00 +19°C° 0.3 mm 4 mps 754 mmHg 88%
    18:00 +18°C° 0.1 mm 4 mps 754 mmHg 90%
    19:00 +15°C° 0.1 mm 4 mps 755 mmHg 92%
    20:00 +14°C° 0.1 mm 4 mps 755 mmHg 93%
    21:00 +13°C° 0 mm 3 mps 755 mmHg 93%
    22:00 +12°C° 0 mm 3 mps 755 mmHg 93%
    23:00 +12°C° 0 mm 3 mps 755 mmHg 92%

    Day after tomorrow, 18 July, Thursday

    Time Temperature Precipitation Wind Pressure Humidity
    00:00 +11°C° 0 mm 3 mps 755 mmHg 93%
    01:00 +12°C° 0 mm 2 mps 755 mmHg 94%
    02:00 +10°C° 0 mm 2 mps 755 mmHg 94%
    03:00 +12°C° 0 mm 2 mps 755 mmHg 94%
    04:00 +12°C° 0 mm 2 mps 755 mmHg 93%
    05:00 +12°C° 0 mm 2 mps 755 mmHg 93%
    06:00 +13°C° 0 mm 3 mps 755 mmHg 87%
    07:00 +16°C° 0 mm 3 mps 756 mmHg 80%
    08:00 +17°C° 0 mm 4 mps 756 mmHg 74%
    09:00 +18°C° 0.2 mm 4 mps 756 mmHg 72%
    10:00 +17°C° 0.2 mm 5 mps 756 mmHg 71%
    11:00 +19°C° 0.2 mm 5 mps 756 mmHg 69%
    12:00 +19°C° 0.1 mm 5 mps 756 mmHg 67%
    13:00 +19°C° 0.1 mm 5 mps 756 mmHg 66%
    14:00 +19°C° 0.1 mm 5 mps 756 mmHg 65%
    15:00 +19°C° 0.1 mm 5 mps 756 mmHg 68%
    16:00 +18°C° 0.1 mm 4 mps 756 mmHg 72%
    17:00 +18°C° 0.1 mm 4 mps 756 mmHg 75%
    18:00 +16°C° 0 mm 3 mps 756 mmHg 80%
    19:00 +14°C° 0 mm 3 mps 756 mmHg 85%
    20:00 +13°C° 0 mm 2 mps 757 mmHg 91%
    21:00 +13°C° 0 mm 2 mps 757 mmHg 92%
    22:00 +12°C° 0 mm 2 mps 757 mmHg 92%
    23:00 +12°C° 0 mm 2 mps 757 mmHg 93%

    19 July, Friday

    Time Temperature Precipitation Wind Pressure Humidity
    00:00 +12°C° 0 mm 1 mps 756 mmHg 93%
    01:00 +12°C° 0 mm 1 mps 756 mmHg 92%
    02:00 +12°C° 0 mm 1 mps 756 mmHg 92%
    03:00 +12°C° 0 mm 1 mps 756 mmHg 90%
    04:00 +13°C° 0 mm 1 mps 756 mmHg 89%
    05:00 +14°C° 0 mm 1 mps 756 mmHg 87%
    06:00 +15°C° 0.1 mm 1 mps 755 mmHg 85%
    07:00 +15°C° 0.1 mm 2 mps 755 mmHg 84%
    08:00 +16°C° 0.1 mm 2 mps 755 mmHg 82%
    09:00 +16°C° 0.1 mm 2 mps 755 mmHg 82%
    10:00 +17°C° 0.1 mm 2 mps 755 mmHg 81%
    11:00 +17°C° 0.1 mm 3 mps 754 mmHg 81%
    12:00 +17°C° 0 mm 2 mps 754 mmHg 79%
    13:00 +18°C° 0 mm 2 mps 754 mmHg 77%
    14:00 +18°C° 0 mm 2 mps 753 mmHg 75%
    15:00 +18°C° 0 mm 2 mps 753 mmHg 75%
    16:00 +18°C° 0 mm 2 mps 753 mmHg 76%
    17:00 +19°C° 0 mm 1 mps 753 mmHg 77%
    18:00 +18°C° 0 mm 1 mps 753 mmHg 82%
    19:00 +16°C° 0 mm 1 mps 753 mmHg 88%
    20:00 +14°C° 0 mm 1 mps 753 mmHg 94%
    21:00 +14°C° 0 mm 1 mps 754 mmHg 94%
    22:00 +14°C° 0 mm 1 mps 754 mmHg 94%
    23:00 +13°C° 0 mm 1 mps 754 mmHg 94%

    20 July, Saturday

    Time Temperature Precipitation Wind Pressure Humidity
    00:00 +13°C° 0 mm 1 mps 754 mmHg 94%
    01:00 +13°C° 0 mm 1 mps 754 mmHg 94%
    02:00 +13°C° 0 mm 1 mps 754 mmHg 94%
    03:00 +14°C° 0 mm 1 mps 754 mmHg 94%
    04:00 +14°C° 0 mm 1 mps 754 mmHg 93%
    05:00 +14°C° 0 mm 1 mps 754 mmHg 93%
    06:00 +15°C° 0 mm 2 mps 754 mmHg 90%
    07:00 +16°C° 0 mm 3 mps 754 mmHg 86%
    08:00 +17°C° 0 mm 4 mps 754 mmHg 83%
    09:00 +18°C° 0.1 mm 4 mps 755 mmHg 83%
    10:00 +18°C° 0.1 mm 4 mps 755 mmHg 82%
    11:00 +19°C° 0.1 mm 5 mps 755 mmHg 81%
    12:00 +19°C° 0.2 mm 5 mps 755 mmHg 82%
    13:00 +19°C° 0.2 mm 5 mps 755 mmHg 82%
    14:00 +19°C° 0.2 mm 6 mps 755 mmHg 82%
    15:00 +19°C° 0.1 mm 6 mps 755 mmHg 81%
    16:00 +20°C° 0.1 mm 6 mps 755 mmHg 80%
    17:00 +20°C° 0.1 mm 5 mps 756 mmHg 79%
    18:00 +17°C° 0 mm 5 mps 756 mmHg 84%
    19:00 +17°C° 0 mm 4 mps 757 mmHg 89%
    20:00 +14°C° 0 mm 4 mps 757 mmHg 94%
    21:00 +14°C° 0 mm 3 mps 757 mmHg 95%
    22:00 +13°C° 0 mm 3 mps 757 mmHg 96%
    23:00 +14°C° 0 mm 2 mps 758 mmHg 96%

    21 July, Sunday

    Time Temperature Precipitation Wind Pressure Humidity
    00:00 +14°C° 0 mm 2 mps 758 mmHg 97%
    01:00 +14°C° 0 mm 2 mps 758 mmHg 97%
    02:00 +14°C° 0 mm 2 mps 758 mmHg 98%
    03:00 +14°C° 0 mm 2 mps 758 mmHg 98%
    04:00 +15°C° 0 mm 2 mps 758 mmHg 98%
    05:00 +15°C° 0 mm 2 mps 758 mmHg 98%
    06:00 +17°C° 0 mm 3 mps 758 mmHg 92%
    07:00 +18°C° 0 mm 4 mps 758 mmHg 87%
    08:00 +20°C° 0 mm 5 mps 758 mmHg 81%
    09:00 +21°C° 0 mm 5 mps 759 mmHg 79%
    10:00 +21°C° 0 mm 6 mps 759 mmHg 77%
    11:00 +22°C° 0 mm 6 mps 759 mmHg 76%
    12:00 +21°C° 0 mm 6 mps 758 mmHg 78%
    13:00 +21°C° 0 mm 7 mps 758 mmHg 80%
    14:00 +21°C° 0 mm 7 mps 758 mmHg 82%
    15:00 +20°C° 0.2 mm 7 mps 757 mmHg 86%
    16:00 +18°C° 0.2 mm 7 mps 757 mmHg 90%
    17:00 +18°C° 0.2 mm 7 mps 756 mmHg 94%
    18:00 +17°C° 1.3 mm 6 mps 756 mmHg 95%
    19:00 +17°C° 1.3 mm 6 mps 756 mmHg 96%
    20:00 +17°C° 1.3 mm 6 mps 755 mmHg 98%
    21:00 +17°C° 0.2 mm 5 mps 755 mmHg 98%
    22:00 +18°C° 0.2 mm 4 mps 755 mmHg 98%
    23:00 +18°C° 0.2 mm 3 mps 755 mmHg 98%
    Show more